Year,Month,Day,Hour,Minute,Value (Times are PST for insolation in W/m^2)
2018,07,01,00,00,0.00
2018,07,01,00,01,0.00
2018,07,01,00,02,0.00
2018,07,01,00,03,0.00
2018,07,01,00,04,0.00
2018,07,01,00,05,0.00
2018,07,01,00,06,0.00
2018,07,01,00,07,0.00
2018,07,01,00,08,0.00
2018,07,01,00,09,0.00
2018,07,01,00,10,0.00
2018,07,01,00,11,0.00
2018,07,01,00,12,0.00
2018,07,01,00,13,0.00
2018,07,01,00,14,0.00
2018,07,01,00,15,0.00
2018,07,01,00,16,0.00
2018,07,01,00,17,0.00
2018,07,01,00,18,0.00
2018,07,01,00,19,0.00
2018,07,01,00,20,0.00
2018,07,01,00,21,0.00
2018,07,01,00,22,0.00
2018,07,01,00,23,0.00
2018,07,01,00,24,0.00
2018,07,01,00,25,0.00
2018,07,01,00,26,0.00
2018,07,01,00,27,0.00
2018,07,01,00,28,0.00
2018,07,01,00,29,0.00
2018,07,01,00,30,0.00
2018,07,01,00,31,0.00
2018,07,01,00,32,0.00
2018,07,01,00,33,0.00
2018,07,01,00,34,0.00
2018,07,01,00,35,0.00
2018,07,01,00,36,0.00
2018,07,01,00,37,0.00
2018,07,01,00,38,0.00
2018,07,01,00,39,0.00
2018,07,01,00,40,0.00
2018,07,01,00,41,0.00
2018,07,01,00,42,0.00
2018,07,01,00,43,0.00
2018,07,01,00,44,0.00
2018,07,01,00,45,0.00
2018,07,01,00,46,0.00
2018,07,01,00,47,0.00
2018,07,01,00,48,0.00
2018,07,01,00,49,0.00
2018,07,01,00,50,0.00
2018,07,01,00,51,0.00
2018,07,01,00,52,0.00
2018,07,01,00,53,0.00
2018,07,01,00,54,0.00
2018,07,01,00,55,0.00
2018,07,01,00,56,0.00
2018,07,01,00,57,0.00
2018,07,01,00,58,0.00
2018,07,01,00,59,0.00
2018,07,01,01,00,0.00
2018,07,01,01,01,0.00
2018,07,01,01,02,0.00
2018,07,01,01,03,0.00
2018,07,01,01,04,0.00
2018,07,01,01,05,0.00
2018,07,01,01,06,0.00
2018,07,01,01,07,0.00
2018,07,01,01,08,0.00
2018,07,01,01,09,0.00
2018,07,01,01,10,0.00
2018,07,01,01,11,0.00
2018,07,01,01,12,0.00
2018,07,01,01,13,0.00
2018,07,01,01,14,0.00
2018,07,01,01,15,0.00
2018,07,01,01,16,0.00
2018,07,01,01,17,0.00
2018,07,01,01,18,0.00
2018,07,01,01,19,0.00
2018,07,01,01,20,0.00
2018,07,01,01,21,0.00
2018,07,01,01,22,0.00
2018,07,01,01,23,0.00
2018,07,01,01,24,0.00
2018,07,01,01,25,0.00
2018,07,01,01,26,0.00
2018,07,01,01,27,0.00
2018,07,01,01,28,0.00
2018,07,01,01,29,0.00
2018,07,01,01,30,0.00
2018,07,01,01,31,0.00
2018,07,01,01,32,0.00
2018,07,01,01,33,0.00
2018,07,01,01,34,0.00
2018,07,01,01,35,0.00
2018,07,01,01,36,0.00
2018,07,01,01,37,0.00
2018,07,01,01,38,0.00
2018,07,01,01,39,0.00
2018,07,01,01,40,0.00
2018,07,01,01,41,0.00
2018,07,01,01,42,0.00
2018,07,01,01,43,0.00
2018,07,01,01,44,0.00
2018,07,01,01,45,0.00
2018,07,01,01,46,0.00
2018,07,01,01,47,0.00
2018,07,01,01,48,0.00
2018,07,01,01,49,0.00
2018,07,01,01,50,0.00
2018,07,01,01,51,0.00
2018,07,01,01,52,0.00
2018,07,01,01,53,0.00
2018,07,01,01,54,0.00
2018,07,01,01,55,0.00
2018,07,01,01,56,0.00
2018,07,01,01,57,0.00
2018,07,01,01,58,0.00
2018,07,01,01,59,0.00
2018,07,01,02,00,0.00
2018,07,01,02,01,0.00
2018,07,01,02,02,0.00
2018,07,01,02,03,0.00
2018,07,01,02,04,0.00
2018,07,01,02,05,0.00
2018,07,01,02,06,0.00
2018,07,01,02,07,0.00
2018,07,01,02,08,0.00
2018,07,01,02,09,0.00
2018,07,01,02,10,0.00
2018,07,01,02,11,0.00
2018,07,01,02,12,0.00
2018,07,01,02,13,0.00
2018,07,01,02,14,0.00
2018,07,01,02,15,0.00
2018,07,01,02,16,0.00
2018,07,01,02,17,0.00
2018,07,01,02,18,0.00
2018,07,01,02,19,0.00
2018,07,01,02,20,0.00
2018,07,01,02,21,0.00
2018,07,01,02,22,0.00
2018,07,01,02,23,0.00
2018,07,01,02,24,0.00
2018,07,01,02,25,0.00
2018,07,01,02,26,0.00
2018,07,01,02,27,0.00
2018,07,01,02,28,0.00
2018,07,01,02,29,0.00
2018,07,01,02,30,0.00
2018,07,01,02,31,0.00
2018,07,01,02,32,0.00
2018,07,01,02,33,0.00
2018,07,01,02,34,0.00
2018,07,01,02,35,0.00
2018,07,01,02,36,0.00
2018,07,01,02,37,0.00
2018,07,01,02,38,0.00
2018,07,01,02,39,0.00
2018,07,01,02,40,0.00
2018,07,01,02,41,0.00
2018,07,01,02,42,0.00
2018,07,01,02,43,0.00
2018,07,01,02,44,0.00
2018,07,01,02,45,0.00
2018,07,01,02,46,0.00
2018,07,01,02,47,0.00
2018,07,01,02,48,0.00
2018,07,01,02,49,0.00
2018,07,01,02,50,0.00
2018,07,01,02,51,0.00
2018,07,01,02,52,0.00
2018,07,01,02,53,0.00
2018,07,01,02,54,0.00
2018,07,01,02,55,0.00
2018,07,01,02,56,0.00
2018,07,01,02,57,0.00
2018,07,01,02,58,0.00
2018,07,01,02,59,0.00
2018,07,01,03,00,0.00
2018,07,01,03,01,0.00
2018,07,01,03,02,0.00
2018,07,01,03,03,0.00
2018,07,01,03,04,0.00
2018,07,01,03,05,0.00
2018,07,01,03,06,0.00
2018,07,01,03,07,0.00
2018,07,01,03,08,0.00
2018,07,01,03,09,0.00
2018,07,01,03,10,0.00
2018,07,01,03,11,0.00
2018,07,01,03,12,0.00
2018,07,01,03,13,0.00
2018,07,01,03,14,0.00
2018,07,01,03,15,0.00
2018,07,01,03,16,0.00
2018,07,01,03,17,0.00
2018,07,01,03,18,0.00
2018,07,01,03,19,0.00
2018,07,01,03,20,0.00
2018,07,01,03,21,0.00
2018,07,01,03,22,0.00
2018,07,01,03,23,0.00
2018,07,01,03,24,0.00
2018,07,01,03,25,0.00
2018,07,01,03,26,0.00
2018,07,01,03,27,0.00
2018,07,01,03,28,0.00
2018,07,01,03,29,0.00
2018,07,01,03,30,0.00
2018,07,01,03,31,0.00
2018,07,01,03,32,0.00
2018,07,01,03,33,0.00
2018,07,01,03,34,0.00
2018,07,01,03,35,0.00
2018,07,01,03,36,0.00
2018,07,01,03,37,0.00
2018,07,01,03,38,0.00
2018,07,01,03,39,0.00
2018,07,01,03,40,0.00
2018,07,01,03,41,0.00
2018,07,01,03,42,0.00
2018,07,01,03,43,0.00
2018,07,01,03,44,0.00
2018,07,01,03,45,0.00
2018,07,01,03,46,0.00
2018,07,01,03,47,0.00
2018,07,01,03,48,0.00
2018,07,01,03,49,0.00
2018,07,01,03,50,0.00
2018,07,01,03,51,0.00
2018,07,01,03,52,0.00
2018,07,01,03,53,0.00
2018,07,01,03,54,0.00
2018,07,01,03,55,0.00
2018,07,01,03,56,0.00
2018,07,01,03,57,0.00
2018,07,01,03,58,0.00
2018,07,01,03,59,0.00
2018,07,01,04,00,0.00
2018,07,01,04,01,0.00
2018,07,01,04,02,0.00
2018,07,01,04,03,0.00
2018,07,01,04,04,0.00
2018,07,01,04,05,0.00
2018,07,01,04,06,0.00
2018,07,01,04,07,0.00
2018,07,01,04,08,0.00
2018,07,01,04,09,0.00
2018,07,01,04,10,0.00
2018,07,01,04,11,0.00
2018,07,01,04,12,0.00
2018,07,01,04,13,0.00
2018,07,01,04,14,0.00
2018,07,01,04,15,0.00
2018,07,01,04,16,0.00
2018,07,01,04,17,0.00
2018,07,01,04,18,0.00
2018,07,01,04,19,0.00
2018,07,01,04,20,0.00
2018,07,01,04,21,0.00
2018,07,01,04,22,0.00
2018,07,01,04,23,0.00
2018,07,01,04,24,0.00
2018,07,01,04,25,0.00
2018,07,01,04,26,0.00
2018,07,01,04,27,0.00
2018,07,01,04,28,0.00
2018,07,01,04,29,0.00
2018,07,01,04,30,0.00
2018,07,01,04,31,0.00
2018,07,01,04,32,0.00
2018,07,01,04,33,0.00
2018,07,01,04,34,0.00
2018,07,01,04,35,0.00
2018,07,01,04,36,0.00
2018,07,01,04,37,0.00
2018,07,01,04,38,0.00
2018,07,01,04,39,0.00
2018,07,01,04,40,0.00
2018,07,01,04,41,0.00
2018,07,01,04,42,0.00
2018,07,01,04,43,0.00
2018,07,01,04,44,0.00
2018,07,01,04,45,0.00
2018,07,01,04,46,0.00
2018,07,01,04,47,0.00
2018,07,01,04,48,0.00
2018,07,01,04,49,0.00
2018,07,01,04,50,0.00
2018,07,01,04,51,0.00
2018,07,01,04,52,0.00
2018,07,01,04,53,0.00
2018,07,01,04,54,0.00
2018,07,01,04,55,0.00
2018,07,01,04,56,0.00
2018,07,01,04,57,0.00
2018,07,01,04,58,0.00
2018,07,01,04,59,0.00
2018,07,01,05,00,0.00
2018,07,01,05,01,0.00
2018,07,01,05,02,0.00
2018,07,01,05,03,0.00
2018,07,01,05,04,0.00
2018,07,01,05,05,0.00
2018,07,01,05,06,0.00
2018,07,01,05,07,0.00
2018,07,01,05,08,0.00
2018,07,01,05,09,0.00
2018,07,01,05,10,0.00
2018,07,01,05,11,0.00
2018,07,01,05,12,0.00
2018,07,01,05,13,0.00
2018,07,01,05,14,0.00
2018,07,01,05,15,0.00
2018,07,01,05,16,0.00
2018,07,01,05,17,0.00
2018,07,01,05,18,0.00
2018,07,01,05,19,0.00
2018,07,01,05,20,0.00
2018,07,01,05,21,0.00
2018,07,01,05,22,0.00
2018,07,01,05,23,0.00
2018,07,01,05,24,0.00
2018,07,01,05,25,0.00
2018,07,01,05,26,0.00
2018,07,01,05,27,0.00
2018,07,01,05,28,0.00
2018,07,01,05,29,0.00
2018,07,01,05,30,0.00
2018,07,01,05,31,0.00
2018,07,01,05,32,0.00
2018,07,01,05,33,0.00
2018,07,01,05,34,0.90
2018,07,01,05,35,5.00
2018,07,01,05,36,5.00
2018,07,01,05,37,5.00
2018,07,01,05,38,5.00
2018,07,01,05,39,5.00
2018,07,01,05,40,5.00
2018,07,01,05,41,5.70
2018,07,01,05,42,7.00
2018,07,01,05,43,7.00
2018,07,01,05,44,8.50
2018,07,01,05,45,9.10
2018,07,01,05,46,11.00
2018,07,01,05,47,11.30
2018,07,01,05,48,12.00
2018,07,01,05,49,12.00
2018,07,01,05,50,12.00
2018,07,01,05,51,12.00
2018,07,01,05,52,12.00
2018,07,01,05,53,12.70
2018,07,01,05,54,14.00
2018,07,01,05,55,15.30
2018,07,01,05,56,16.00
2018,07,01,05,57,13.90
2018,07,01,05,58,12.00
2018,07,01,05,59,12.80
2018,07,01,06,00,15.00
2018,07,01,06,01,17.40
2018,07,01,06,02,18.80
2018,07,01,06,03,19.20
2018,07,01,06,04,21.00
2018,07,01,06,05,21.80
2018,07,01,06,06,24.10
2018,07,01,06,07,27.10
2018,07,01,06,08,29.70
2018,07,01,06,09,32.00
2018,07,01,06,10,32.00
2018,07,01,06,11,32.00
2018,07,01,06,12,32.00
2018,07,01,06,13,32.00
2018,07,01,06,14,32.00
2018,07,01,06,15,32.00
2018,07,01,06,16,32.00
2018,07,01,06,17,32.00
2018,07,01,06,18,32.00
2018,07,01,06,19,32.00
2018,07,01,06,20,32.00
2018,07,01,06,21,33.30
2018,07,01,06,22,35.70
2018,07,01,06,23,38.00
2018,07,01,06,24,39.00
2018,07,01,06,25,39.80
2018,07,01,06,26,40.10
2018,07,01,06,27,42.40
2018,07,01,06,28,44.70
2018,07,01,06,29,46.50
2018,07,01,06,30,48.30
2018,07,01,06,31,50.60
2018,07,01,06,32,51.50
2018,07,01,06,33,55.60
2018,07,01,06,34,54.80
2018,07,01,06,35,56.00
2018,07,01,06,36,56.00
2018,07,01,06,37,56.00
2018,07,01,06,38,57.70
2018,07,01,06,39,55.50
2018,07,01,06,40,52.90
2018,07,01,06,41,50.00
2018,07,01,06,42,49.00
2018,07,01,06,43,49.00
2018,07,01,06,44,49.00
2018,07,01,06,45,49.00
2018,07,01,06,46,51.10
2018,07,01,06,47,55.10
2018,07,01,06,48,57.40
2018,07,01,06,49,58.00
2018,07,01,06,50,60.70
2018,07,01,06,51,64.20
2018,07,01,06,52,62.40
2018,07,01,06,53,65.30
2018,07,01,06,54,61.90
2018,07,01,06,55,61.80
2018,07,01,06,56,61.70
2018,07,01,06,57,60.00
2018,07,01,06,58,60.90
2018,07,01,06,59,58.30
2018,07,01,07,00,53.80
2018,07,01,07,01,51.10
2018,07,01,07,02,46.80
2018,07,01,07,03,46.00
2018,07,01,07,04,46.00
2018,07,01,07,05,46.00
2018,07,01,07,06,48.40
2018,07,01,07,07,52.80
2018,07,01,07,08,57.40
2018,07,01,07,09,65.40
2018,07,01,07,10,68.60
2018,07,01,07,11,70.30
2018,07,01,07,12,73.60
2018,07,01,07,13,70.40
2018,07,01,07,14,71.30
2018,07,01,07,15,66.70
2018,07,01,07,16,62.50
2018,07,01,07,17,60.70
2018,07,01,07,18,60.00
2018,07,01,07,19,60.50
2018,07,01,07,20,66.70
2018,07,01,07,21,72.80
2018,07,01,07,22,75.70
2018,07,01,07,23,81.10
2018,07,01,07,24,85.50
2018,07,01,07,25,86.00
2018,07,01,07,26,86.00
2018,07,01,07,27,86.00
2018,07,01,07,28,87.10
2018,07,01,07,29,89.40
2018,07,01,07,30,90.90
2018,07,01,07,31,93.00
2018,07,01,07,32,93.60
2018,07,01,07,33,95.90
2018,07,01,07,34,97.00
2018,07,01,07,35,97.70
2018,07,01,07,36,99.70
2018,07,01,07,37,102.50
2018,07,01,07,38,106.20
2018,07,01,07,39,109.90
2018,07,01,07,40,112.20
2018,07,01,07,41,113.00
2018,07,01,07,42,114.00
2018,07,01,07,43,116.80
2018,07,01,07,44,120.30
2018,07,01,07,45,123.80
2018,07,01,07,46,128.90
2018,07,01,07,47,133.00
2018,07,01,07,48,138.90
2018,07,01,07,49,144.30
2018,07,01,07,50,164.40
2018,07,01,07,51,213.50
2018,07,01,07,52,234.20
2018,07,01,07,53,177.10
2018,07,01,07,54,160.10
2018,07,01,07,55,158.00
2018,07,01,07,56,158.80
2018,07,01,07,57,161.50
2018,07,01,07,58,165.60
2018,07,01,07,59,172.60
2018,07,01,08,00,182.00
2018,07,01,08,01,196.90
2018,07,01,08,02,214.10
2018,07,01,08,03,238.40
2018,07,01,08,04,251.00
2018,07,01,08,05,357.80
2018,07,01,08,06,360.10
2018,07,01,08,07,234.10
2018,07,01,08,08,229.40
2018,07,01,08,09,232.30
2018,07,01,08,10,236.10
2018,07,01,08,11,237.00
2018,07,01,08,12,232.80
2018,07,01,08,13,225.00
2018,07,01,08,14,219.20
2018,07,01,08,15,218.00
2018,07,01,08,16,216.60
2018,07,01,08,17,216.10
2018,07,01,08,18,218.00
2018,07,01,08,19,218.90
2018,07,01,08,20,222.90
2018,07,01,08,21,226.20
2018,07,01,08,22,234.20
2018,07,01,08,23,237.10
2018,07,01,08,24,239.90
2018,07,01,08,25,247.80
2018,07,01,08,26,256.40
2018,07,01,08,27,259.30
2018,07,01,08,28,260.00
2018,07,01,08,29,256.90
2018,07,01,08,30,249.60
2018,07,01,08,31,240.60
2018,07,01,08,32,231.90
2018,07,01,08,33,230.00
2018,07,01,08,34,231.60
2018,07,01,08,35,236.10
2018,07,01,08,36,242.00
2018,07,01,08,37,249.40
2018,07,01,08,38,256.60
2018,07,01,08,39,259.40
2018,07,01,08,40,260.00
2018,07,01,08,41,256.50
2018,07,01,08,42,247.80
2018,07,01,08,43,237.60
2018,07,01,08,44,228.10
2018,07,01,08,45,220.20
2018,07,01,08,46,210.60
2018,07,01,08,47,201.60
2018,07,01,08,48,199.00
2018,07,01,08,49,199.40
2018,07,01,08,50,202.20
2018,07,01,08,51,206.20
2018,07,01,08,52,212.10
2018,07,01,08,53,218.30
2018,07,01,08,54,220.30
2018,07,01,08,55,221.00
2018,07,01,08,56,219.20
2018,07,01,08,57,214.40
2018,07,01,08,58,211.20
2018,07,01,08,59,213.90
2018,07,01,09,00,220.80
2018,07,01,09,01,231.00
2018,07,01,09,02,242.20
2018,07,01,09,03,254.30
2018,07,01,09,04,266.40
2018,07,01,09,05,281.60
2018,07,01,09,06,296.50
2018,07,01,09,07,307.30
2018,07,01,09,08,318.60
2018,07,01,09,09,315.20
2018,07,01,09,10,314.70
2018,07,01,09,11,313.00
2018,07,01,09,12,312.30
2018,07,01,09,13,310.00
2018,07,01,09,14,311.60
2018,07,01,09,15,317.00
2018,07,01,09,16,326.20
2018,07,01,09,17,344.40
2018,07,01,09,18,349.80
2018,07,01,09,19,338.50
2018,07,01,09,20,331.10
2018,07,01,09,21,325.40
2018,07,01,09,22,329.70
2018,07,01,09,23,341.60
2018,07,01,09,24,361.70
2018,07,01,09,25,371.20
2018,07,01,09,26,372.40
2018,07,01,09,27,373.20
2018,07,01,09,28,373.70
2018,07,01,09,29,377.50
2018,07,01,09,30,376.80
2018,07,01,09,31,381.90
2018,07,01,09,32,381.40
2018,07,01,09,33,380.00
2018,07,01,09,34,372.00
2018,07,01,09,35,366.00
2018,07,01,09,36,362.90
2018,07,01,09,37,348.70
2018,07,01,09,38,335.90
2018,07,01,09,39,330.60
2018,07,01,09,40,330.00
2018,07,01,09,41,331.20
2018,07,01,09,42,338.00
2018,07,01,09,43,387.90
2018,07,01,09,44,357.10
2018,07,01,09,45,330.70
2018,07,01,09,46,324.50
2018,07,01,09,47,321.40
2018,07,01,09,48,319.00
2018,07,01,09,49,318.00
2018,07,01,09,50,321.00
2018,07,01,09,51,320.30
2018,07,01,09,52,323.90
2018,07,01,09,53,327.00
2018,07,01,09,54,328.00
2018,07,01,09,55,331.00
2018,07,01,09,56,332.00
2018,07,01,09,57,337.90
2018,07,01,09,58,342.10
2018,07,01,09,59,347.50
2018,07,01,10,00,351.60
2018,07,01,10,01,354.30
2018,07,01,10,02,350.90
2018,07,01,10,03,345.90
2018,07,01,10,04,341.80
2018,07,01,10,05,338.40
2018,07,01,10,06,334.20
2018,07,01,10,07,325.40
2018,07,01,10,08,318.90
2018,07,01,10,09,312.90
2018,07,01,10,10,311.00
2018,07,01,10,11,311.00
2018,07,01,10,12,312.10
2018,07,01,10,13,314.40
2018,07,01,10,14,321.00
2018,07,01,10,15,328.00
2018,07,01,10,16,335.10
2018,07,01,10,17,342.50
2018,07,01,10,18,352.10
2018,07,01,10,19,360.00
2018,07,01,10,20,365.40
2018,07,01,10,21,366.80
2018,07,01,10,22,366.30
2018,07,01,10,23,368.80
2018,07,01,10,24,372.90
2018,07,01,10,25,378.50
2018,07,01,10,26,381.00
2018,07,01,10,27,383.00
2018,07,01,10,28,382.30
2018,07,01,10,29,379.60
2018,07,01,10,30,375.50
2018,07,01,10,31,371.60
2018,07,01,10,32,374.00
2018,07,01,10,33,384.40
2018,07,01,10,34,391.40
2018,07,01,10,35,393.00
2018,07,01,10,36,394.60
2018,07,01,10,37,415.00
2018,07,01,10,38,454.50
2018,07,01,10,39,479.40
2018,07,01,10,40,497.10
2018,07,01,10,41,516.00
2018,07,01,10,42,537.90
2018,07,01,10,43,516.70
2018,07,01,10,44,513.20
2018,07,01,10,45,590.70
2018,07,01,10,46,652.40
2018,07,01,10,47,689.30
2018,07,01,10,48,676.50
2018,07,01,10,49,663.00
2018,07,01,10,50,644.80
2018,07,01,10,51,511.10
2018,07,01,10,52,449.20
2018,07,01,10,53,426.30
2018,07,01,10,54,418.60
2018,07,01,10,55,401.60
2018,07,01,10,56,409.60
2018,07,01,10,57,435.70
2018,07,01,10,58,467.00
2018,07,01,10,59,538.60
2018,07,01,11,00,570.00
2018,07,01,11,01,698.60
2018,07,01,11,02,658.20
2018,07,01,11,03,603.10
2018,07,01,11,04,558.20
2018,07,01,11,05,512.20
2018,07,01,11,06,489.60
2018,07,01,11,07,542.70
2018,07,01,11,08,584.40
2018,07,01,11,09,548.00
2018,07,01,11,10,548.00
2018,07,01,11,11,548.00
2018,07,01,11,12,548.00
2018,07,01,11,13,625.00
2018,07,01,11,14,567.20
2018,07,01,11,15,522.70
2018,07,01,11,16,555.40
2018,07,01,11,17,539.20
2018,07,01,11,18,540.00
2018,07,01,11,19,586.00
2018,07,01,11,20,623.10
2018,07,01,11,21,754.00
2018,07,01,11,22,754.00
2018,07,01,11,23,609.90
2018,07,01,11,24,524.10
2018,07,01,11,25,522.00
2018,07,01,11,26,519.80
2018,07,01,11,27,545.60
2018,07,01,11,28,547.90
2018,07,01,11,29,503.00
2018,07,01,11,30,552.70
2018,07,01,11,31,581.30
2018,07,01,11,32,633.00
2018,07,01,11,33,657.80
2018,07,01,11,34,646.10
2018,07,01,11,35,639.90
2018,07,01,11,36,617.50
2018,07,01,11,37,664.70
2018,07,01,11,38,603.60
2018,07,01,11,39,608.00
2018,07,01,11,40,593.20
2018,07,01,11,41,598.30
2018,07,01,11,42,660.30
2018,07,01,11,43,615.10
2018,07,01,11,44,599.40
2018,07,01,11,45,642.90
2018,07,01,11,46,648.90
2018,07,01,11,47,602.00
2018,07,01,11,48,598.10
2018,07,01,11,49,558.60
2018,07,01,11,50,549.50
2018,07,01,11,51,558.90
2018,07,01,11,52,564.90
2018,07,01,11,53,571.30
2018,07,01,11,54,552.20
2018,07,01,11,55,546.20
2018,07,01,11,56,545.40
2018,07,01,11,57,551.00
2018,07,01,11,58,574.50
2018,07,01,11,59,637.80
2018,07,01,12,00,670.80
2018,07,01,12,01,732.50
2018,07,01,12,02,663.10
2018,07,01,12,03,604.00
2018,07,01,12,04,555.20
2018,07,01,12,05,521.80
2018,07,01,12,06,534.30
2018,07,01,12,07,552.90
2018,07,01,12,08,606.30
2018,07,01,12,09,615.50
2018,07,01,12,10,644.50
2018,07,01,12,11,679.90
2018,07,01,12,12,688.80
2018,07,01,12,13,731.00
2018,07,01,12,14,813.90
2018,07,01,12,15,970.10
2018,07,01,12,16,993.00
2018,07,01,12,17,1034.40
2018,07,01,12,18,1021.60
2018,07,01,12,19,887.60
2018,07,01,12,20,842.00
2018,07,01,12,21,771.10
2018,07,01,12,22,721.00
2018,07,01,12,23,721.00
2018,07,01,12,24,721.00
2018,07,01,12,25,806.70
2018,07,01,12,26,997.00
2018,07,01,12,27,784.10
2018,07,01,12,28,654.00
2018,07,01,12,29,659.40
2018,07,01,12,30,794.10
2018,07,01,12,31,735.60
2018,07,01,12,32,758.20
2018,07,01,12,33,747.00
2018,07,01,12,34,747.00
2018,07,01,12,35,731.80
2018,07,01,12,36,526.00
2018,07,01,12,37,724.60
2018,07,01,12,38,1081.30
2018,07,01,12,39,1042.70
2018,07,01,12,40,1026.70
2018,07,01,12,41,1042.50
2018,07,01,12,42,1094.00
2018,07,01,12,43,1172.90
2018,07,01,12,44,1225.00
2018,07,01,12,45,894.80
2018,07,01,12,46,682.90
2018,07,01,12,47,617.20
2018,07,01,12,48,566.00
2018,07,01,12,49,566.00
2018,07,01,12,50,566.00
2018,07,01,12,51,593.10
2018,07,01,12,52,606.00
2018,07,01,12,53,1183.00
2018,07,01,12,54,1047.80
2018,07,01,12,55,642.00
2018,07,01,12,56,642.00
2018,07,01,12,57,642.00
2018,07,01,12,58,527.00
2018,07,01,12,59,561.40
2018,07,01,13,00,608.00
2018,07,01,13,01,544.10
2018,07,01,13,02,459.00
2018,07,01,13,03,1011.50
2018,07,01,13,04,1207.20
2018,07,01,13,05,1191.70
2018,07,01,13,06,1167.10
2018,07,01,13,07,1138.10
2018,07,01,13,08,1146.70
2018,07,01,13,09,1157.00
2018,07,01,13,10,786.50
2018,07,01,13,11,812.50
2018,07,01,13,12,1151.00
2018,07,01,13,13,1151.00
2018,07,01,13,14,1195.90
2018,07,01,13,15,1230.30
2018,07,01,13,16,1252.60
2018,07,01,13,17,1255.00
2018,07,01,13,18,1255.00
2018,07,01,13,19,1235.00
2018,07,01,13,20,1157.90
2018,07,01,13,21,1201.50
2018,07,01,13,22,1222.00
2018,07,01,13,23,1083.40
2018,07,01,13,24,575.00
2018,07,01,13,25,612.20
2018,07,01,13,26,647.00
2018,07,01,13,27,647.00
2018,07,01,13,28,643.40
2018,07,01,13,29,613.00
2018,07,01,13,30,613.00
2018,07,01,13,31,613.00
2018,07,01,13,32,613.00
2018,07,01,13,33,613.00
2018,07,01,13,34,1349.70
2018,07,01,13,35,1376.00
2018,07,01,13,36,1376.00
2018,07,01,13,37,1376.00
2018,07,01,13,38,1376.00
2018,07,01,13,39,1376.00
2018,07,01,13,40,1117.00
2018,07,01,13,41,1058.00
2018,07,01,13,42,1203.20
2018,07,01,13,43,1382.00
2018,07,01,13,44,1355.60
2018,07,01,13,45,1382.90
2018,07,01,13,46,1289.00
2018,07,01,13,47,809.00
2018,07,01,13,48,809.00
2018,07,01,13,49,809.00
2018,07,01,13,50,809.00
2018,07,01,13,51,808.90
2018,07,01,13,52,805.00
2018,07,01,13,53,805.00
2018,07,01,13,54,1009.70
2018,07,01,13,55,1223.20
2018,07,01,13,56,1234.40
2018,07,01,13,57,1239.00
2018,07,01,13,58,1133.60
2018,07,01,13,59,634.90
2018,07,01,14,00,608.00
2018,07,01,14,01,608.00
2018,07,01,14,02,608.00
2018,07,01,14,03,608.00
2018,07,01,14,04,608.00
2018,07,01,14,05,600.50
2018,07,01,14,06,589.00
2018,07,01,14,07,554.40
2018,07,01,14,08,538.00
2018,07,01,14,09,430.90
2018,07,01,14,10,438.20
2018,07,01,14,11,460.20
2018,07,01,14,12,488.80
2018,07,01,14,13,515.70
2018,07,01,14,14,517.00
2018,07,01,14,15,517.20
2018,07,01,14,16,519.00
2018,07,01,14,17,519.00
2018,07,01,14,18,499.10
2018,07,01,14,19,483.00
2018,07,01,14,20,483.00
2018,07,01,14,21,448.90
2018,07,01,14,22,421.70
2018,07,01,14,23,422.60
2018,07,01,14,24,453.30
2018,07,01,14,25,417.70
2018,07,01,14,26,392.00
2018,07,01,14,27,1192.00
2018,07,01,14,28,1192.00
2018,07,01,14,29,1192.00
2018,07,01,14,30,1192.00
2018,07,01,14,31,1192.00
2018,07,01,14,32,1192.00
2018,07,01,14,33,1196.30
2018,07,01,14,34,1213.00
2018,07,01,14,35,1213.00
2018,07,01,14,36,1213.00
2018,07,01,14,37,1213.00
2018,07,01,14,38,1213.00
2018,07,01,14,39,1213.00
2018,07,01,14,40,925.10
2018,07,01,14,41,381.60
2018,07,01,14,42,401.10
2018,07,01,14,43,410.00
2018,07,01,14,44,410.00
2018,07,01,14,45,424.20
2018,07,01,14,46,469.00
2018,07,01,14,47,469.00
2018,07,01,14,48,469.00
2018,07,01,14,49,469.00
2018,07,01,14,50,455.80
2018,07,01,14,51,341.00
2018,07,01,14,52,341.00
2018,07,01,14,53,362.40
2018,07,01,14,54,381.00
2018,07,01,14,55,381.00
2018,07,01,14,56,381.00
2018,07,01,14,57,381.00
2018,07,01,14,58,657.40
2018,07,01,14,59,1043.50
2018,07,01,15,00,1033.90
2018,07,01,15,01,1032.00
2018,07,01,15,02,1032.00
2018,07,01,15,03,1032.00
2018,07,01,15,04,1032.00
2018,07,01,15,05,1032.00
2018,07,01,15,06,1080.80
2018,07,01,15,07,1097.00
2018,07,01,15,08,1073.70
2018,07,01,15,09,957.30
2018,07,01,15,10,943.10
2018,07,01,15,11,936.60
2018,07,01,15,12,935.00
2018,07,01,15,13,936.70
2018,07,01,15,14,933.60
2018,07,01,15,15,925.10
2018,07,01,15,16,915.90
2018,07,01,15,17,904.70
2018,07,01,15,18,900.00
2018,07,01,15,19,898.10
2018,07,01,15,20,895.00
2018,07,01,15,21,889.30
2018,07,01,15,22,883.50
2018,07,01,15,23,874.20
2018,07,01,15,24,870.00
2018,07,01,15,25,866.90
2018,07,01,15,26,862.50
2018,07,01,15,27,860.60
2018,07,01,15,28,860.00
2018,07,01,15,29,860.70
2018,07,01,15,30,862.60
2018,07,01,15,31,867.20
2018,07,01,15,32,870.00
2018,07,01,15,33,872.90
2018,07,01,15,34,879.80
2018,07,01,15,35,886.80
2018,07,01,15,36,889.00
2018,07,01,15,37,750.00
2018,07,01,15,38,745.00
2018,07,01,15,39,745.00
2018,07,01,15,40,745.00
2018,07,01,15,41,745.00
2018,07,01,15,42,745.00
2018,07,01,15,43,181.50
2018,07,01,15,44,197.00
2018,07,01,15,45,197.00
2018,07,01,15,46,625.60
2018,07,01,15,47,947.00
2018,07,01,15,48,947.00
2018,07,01,15,49,897.90
2018,07,01,15,50,888.00
2018,07,01,15,51,881.70
2018,07,01,15,52,870.10
2018,07,01,15,53,864.10
2018,07,01,15,54,860.30
2018,07,01,15,55,860.00
2018,07,01,15,56,860.00
2018,07,01,15,57,856.60
2018,07,01,15,58,861.70
2018,07,01,15,59,840.00
2018,07,01,16,00,841.90
2018,07,01,16,01,847.10
2018,07,01,16,02,838.10
2018,07,01,16,03,834.00
2018,07,01,16,04,833.00
2018,07,01,16,05,830.60
2018,07,01,16,06,822.80
2018,07,01,16,07,816.00
2018,07,01,16,08,811.20
2018,07,01,16,09,809.50
2018,07,01,16,10,804.40
2018,07,01,16,11,802.00
2018,07,01,16,12,800.10
2018,07,01,16,13,800.00
2018,07,01,16,14,800.00
2018,07,01,16,15,800.00
2018,07,01,16,16,795.20
2018,07,01,16,17,793.00
2018,07,01,16,18,790.70
2018,07,01,16,19,788.30
2018,07,01,16,20,789.80
2018,07,01,16,21,791.00
2018,07,01,16,22,801.00
2018,07,01,16,23,806.70
2018,07,01,16,24,813.00
2018,07,01,16,25,820.90
2018,07,01,16,26,829.10
2018,07,01,16,27,839.30
2018,07,01,16,28,815.80
2018,07,01,16,29,798.40
2018,07,01,16,30,615.00
2018,07,01,16,31,615.00
2018,07,01,16,32,728.00
2018,07,01,16,33,883.40
2018,07,01,16,34,895.00
2018,07,01,16,35,895.00
2018,07,01,16,36,895.00
2018,07,01,16,37,895.00
2018,07,01,16,38,895.00
2018,07,01,16,39,895.00
2018,07,01,16,40,895.00
2018,07,01,16,41,895.00
2018,07,01,16,42,895.00
2018,07,01,16,43,805.70
2018,07,01,16,44,636.00
2018,07,01,16,45,507.50
2018,07,01,16,46,440.10
2018,07,01,16,47,483.40
2018,07,01,16,48,492.40
2018,07,01,16,49,503.20
2018,07,01,16,50,443.00
2018,07,01,16,51,606.80
2018,07,01,16,52,736.00
2018,07,01,16,53,704.90
2018,07,01,16,54,356.50
2018,07,01,16,55,355.00
2018,07,01,16,56,355.00
2018,07,01,16,57,355.00
2018,07,01,16,58,274.70
2018,07,01,16,59,249.80
2018,07,01,17,00,248.00
2018,07,01,17,01,250.10
2018,07,01,17,02,258.00
2018,07,01,17,03,274.30
2018,07,01,17,04,274.70
2018,07,01,17,05,273.70
2018,07,01,17,06,270.10